RH
47 38 44 51 60 61 60 58 60 97 92 98 95 100 99 98 94 85 81 76 89 79 80 87 71 70 84 80 79 71 77 75 71 74 58 58 63 46 45 50 51 45 45
69 70 70 72 73 67 67 77 80 81 89 99 98 96 99 97 90 69 86 79 90 85 77 81 70 82 92 80 81 72 76 72 81 66 60 53 49 46 39 47 49 49 47
77 84 88 95 78 71 79 81 88 99 99 99 100 99 100 100 97 83 93 76 81 79 74 76 66 76 92 68 79 75 78 81 82 92 89 62 51 45 42 42 52 52 50
74 75 80 94 96 94 97 92 92 96 100 100 100 94 97 100 96 93 90 77 66 64 62 63 62 64 65 68 74 72 76 83 79 97 89 61 54 48 50 50 52 55 52
100 99 96 100 100 99 100 100 99 98 98 94 94 92 94 94 94 90 87 76 64 66 61 61 61 69 67 58 67 77 76 82 82 91 88 64 62 52 50 49 54 54 56
98 100 100 100 98 100 100 100 100 100 95 95 97 95 95 79 81 86 89 88 87 80 73 73 71 73 70 70 85 85 79 85 82 88 91 82 64 65 51 53 58 59 61
100 100 100 100 100 100 99 99 100 97 97 87 93 97 84 88 87 92 92 90 88 90 88 90 88 86 78 75 83 91 95 100 100 97 98 84 77 69 59 62 65 63 62
100 100 100 100 100 100 99 100 100 100 97 93 99 100 100 100 100 100 99 98 98 98 100 99 98 99 99 99 96 98 100 100 100 100 98 99 94 83 75 76 78 76 70
99 100 100 99 98 99 100 100 100 100 94 92 100 99 94 92 94 88 90 91 100 100 100 99 100 100 100 100 99 100 100 100 99 95 100 94 90 88 86 79 81 79 73
82 80 84 86 88 93 96 97 98 99 99 98 98 99 100 100 100 100 100 100 97 94 92 94 92 96 100 100 100 100 100 100 100 100 98 98 95 87 92 86 82 85 84
81 77 76 73 71 73 75 75 75 74 76 80 86 90 90 89 88 88 90 96 99 99 99 99 100 98 86 83 87 88 94 97 95 99 100 98 94 94 88 83 84 87 84
69 66 66 71 74 76 76 78 77 78 76 75 75 77 79 81 82 82 82 85 91 97 98 99 100 100 100 100 100 99 98 94 96 98 99 98 100 98 95 89 88 91 90
55 56 63 66 71 73 66 66 69 77 83 86 87 89 92 93 95 96 96 95 94 92 93 98 99 99 100 100 100 100 100 99 100 100 97 91 93 99 100 99 91 90 89
59 54 53 53 59 61 65 67 69 72 72 72 74 80 84 86 90 94 95 95 97 98 99 100 99 99 100 100 100 100 100 100 100 100 100 100 100 100 99 99 98 95 91
59 58 56 55 58 57 55 60 67 70 74 77 78 82 86 92 96 98 97 95 96 97 98 98 99 99 100 100 100 100 100 99 100 100 100 99 99 98 98 98 97 96 75
72 66 66 65 62 58 56 56 57 58 60 61 62 62 64 71 88 96 99 98 96 95 98 99 99 100 100 100 100 100 100 100 99 99 99 99 99 99 99 99 99 97 85
66 63 65 63 58 51 48 48 48 48 48 46 46 43 39 35 33 36 49 73 94 92 98 99 99 100 100 99 99 100 100 99 99 99 99 99 99 99 98 98 98 98 98
67 66 66 63 54 49 55 62 62 58 55 54 53 52 51 51 50 48 45 44 47 84 89 96 99 99 99 98 99 100 100 100 100 100 99 98 98 98 99 98 97 97 97
66 66 67 60 55 55 58 58 51 49 52 56 58 59 59 58 56 55 55 52 49 45 54 74 87 95 96 97 97 95 96 100 100 100 100 100 98 98 98 98 98 98 98
68 71 66 60 61 62 59 53 48 50 57 61 62 62 54 39 30 26 30 39 53 64 66 61 50 56 82 94 95 97 97 96 96 98 99 100 99 98 98 98 98 98 97
71 66 64 65 64 62 50 45 48 51 59 62 64 67 58 48 38 34 32 37 45 54 64 71 78 73 61 66 92 97 94 94 96 98 98 97 98 97 98 98 98 98 97
68 68 71 69 66 63 54 44 45 54 61 63 64 70 68 56 47 39 37 44 48 54 60 63 67 74 85 70 68 86 96 100 100 98 97 97 98 97 97 98 98 98 98
68 74 77 71 64 57 54 52 46 48 59 65 68 76 84 71 49 42 46 56 56 57 61 62 60 60 77 89 74 90 100 100 98 98 98 97 97 97 97 97 97 98 98
75 78 72 68 67 65 66 71 67 60 59 62 64 68 67 57 49 50 62 65 63 63 64 63 65 67 78 91 91 76 81 100 100 98 98 97 96 96 96 97 97 97 97
83 83 84 85 88 89 91 94 92 87 87 81 66 62 64 56 57 66 73 69 69 67 66 69 74 76 90 95 95 92 82 76 77 96 96 96 97 96 96 96 97 96 96
88 91 97 100 100 96 97 96 93 93 93 84 83 84 67 66 72 77 74 71 72 69 73 78 79 81 94 96 94 94 95 94 90 82 98 98 95 96 96 96 96 96 96
Wind_Speed
33 40 41 41 39 41 41 39 43 40 40 44 46 49 51 58 58 51 49 53 49 49 46 40 39 39 38 36 35 29 31 27 28 23 18 19 21 20 21 20 21 21 20
28 32 36 39 41 41 38 30 29 33 44 49 46 51 53 49 40 42 51 51 48 48 45 39 41 39 39 36 33 33 35 32 30 28 23 23 25 23 22 23 23 22 21
33 32 29 27 34 38 39 42 28 37 44 39 51 51 52 52 45 50 49 44 44 43 39 40 42 40 40 38 37 39 38 31 29 32 29 26 27 25 25 26 25 24 22
31 34 38 36 33 29 28 29 26 29 41 36 25 21 24 34 28 29 35 38 34 34 36 38 41 41 40 34 40 43 36 36 34 34 34 30 29 26 26 26 24 24 22
34 29 17 28 23 19 17 28 27 19 16 17 18 18 19 22 25 28 29 28 28 36 38 38 42 42 41 39 43 45 41 43 40 37 37 32 31 27 25 26 24 24 24
35 32 37 26 31 17 8 14 19 19 17 15 17 20 20 21 22 22 27 31 36 37 38 39 41 40 40 38 41 45 45 47 44 42 41 34 29 28 29 27 26 25 25
38 32 34 35 34 31 25 22 19 14 13 8 16 20 20 22 23 23 23 24 26 30 31 34 37 40 43 44 45 48 50 48 48 43 39 30 30 29 25 28 27 26 25
36 35 32 30 29 27 25 25 22 16 10 6 4 8 10 12 14 14 17 21 28 36 35 36 41 46 52 51 50 54 57 50 36 31 29 28 24 25 26 26 25 25 25
34 31 29 27 25 24 25 23 21 18 18 15 12 9 7 6 8 6 6 9 13 15 18 24 28 28 28 32 32 35 30 26 25 23 22 22 25 25 26 27 27 26 25
31 29 26 23 23 23 22 20 19 16 15 12 10 9 6 3 2 4 7 9 8 7 10 13 17 16 6 6 8 12 12 14 15 19 22 23 23 24 24 27 26 27 25
26 25 25 24 23 22 19 18 15 14 12 10 8 5 4 3 2 3 3 5 8 10 11 11 11 13 20 19 18 18 16 13 16 20 19 22 23 21 21 23 24 24 23
21 21 21 20 19 18 17 16 14 12 11 9 8 7 6 6 6 6 6 7 8 9 10 11 12 13 13 15 18 19 24 27 26 22 23 24 23 22 20 22 23 24 24
17 19 19 18 16 14 14 13 11 10 8 8 7 6 7 8 9 10 10 10 11 12 12 13 13 14 16 16 16 17 21 23 26 29 29 27 24 22 24 25 25 25 25
17 18 16 14 12 12 12 11 11 11 11 10 8 7 7 9 9 11 11 12 12 13 14 14 14 14 15 16 18 19 21 23 24 24 24 23 23 25 26 26 25 24 25
16 15 15 14 14 14 14 14 14 14 13 14 14 14 14 14 11 12 13 14 14 15 16 16 15 15 16 16 17 19 22 24 26 27 28 27 26 27 27 25 25 25 27
12 13 13 12 11 11 10 10 9 9 10 11 12 13 15 15 16 15 14 15 15 16 16 16 16 16 15 15 16 18 20 21 24 27 28 28 28 29 29 29 28 28 27
16 17 16 16 14 12 11 9 8 10 10 9 10 11 12 14 15 15 16 16 13 14 16 15 15 15 17 15 14 15 18 20 21 22 25 30 31 31 32 32 30 29 29
17 16 16 15 13 12 12 12 13 11 10 10 12 13 14 14 14 15 16 16 13 11 13 16 16 17 18 19 20 19 19 17 19 21 23 25 27 31 33 35 32 30 28
16 16 14 13 12 13 14 14 13 14 14 14 12 11 12 13 14 15 15 16 16 16 14 15 15 16 17 18 20 22 23 22 21 21 22 24 25 28 31 33 31 28 26
14 13 11 10 11 11 11 11 12 12 12 13 13 13 13 13 14 16 17 18 18 18 17 16 16 15 15 17 18 18 19 20 22 22 21 22 22 24 28 30 29 27 25
12 11 11 11 11 11 11 12 12 13 13 13 14 16 16 18 18 18 19 19 19 19 20 19 18 17 17 17 17 18 17 18 19 20 20 20 19 21 24 26 25 24 21
11 11 12 12 12 12 13 14 14 14 15 15 16 16 18 20 21 21 21 20 20 21 21 22 22 21 19 19 18 17 17 17 16 16 16 16 17 18 20 23 24 22 20
12 12 13 13 14 14 14 15 15 16 16 17 18 19 20 21 21 21 22 22 22 21 22 23 23 22 21 19 18 18 17 15 14 14 14 14 13 13 15 17 20 21 20
13 14 14 15 16 16 16 17 17 17 19 19 20 21 22 22 22 23 23 24 23 23 22 22 22 21 20 19 17 17 18 19 17 14 12 11 10 9 9 11 13 15 16
14 15 16 16 17 17 18 19 19 20 20 20 21 22 22 23 23 23 23 24 24 24 22 20 19 18 17 16 16 16 16 16 17 17 14 12 11 9 7 7 8 10 12
14 15 16 17 17 19 19 18 18 19 20 19 20 22 23 23 24 24 24 24 24 22 19 17 16 15 14 14 15 15 14 13 12 13 13 11 9 8 7 8 7 8 9
Wind_Direction
229 225 228 231 232 237 233 231 235 232 231 231 228 226 225 227 218 215 227 230 231 230 232 234 237 239 237 236 241 232 240 235 237 234 237 243 246 247 255 257 263 268 272
231 231 231 233 240 231 225 222 229 235 227 223 225 225 227 222 206 207 228 230 230 229 234 234 235 235 240 239 229 233 237 235 235 237 239 242 237 242 252 257 261 267 271
235 233 231 228 223 222 221 222 235 218 220 221 218 214 220 212 215 223 228 230 226 229 235 237 236 237 240 241 233 234 233 236 238 242 245 240 234 236 246 250 257 261 266
214 217 216 227 217 208 208 226 218 208 197 199 207 210 214 220 228 239 233 234 236 239 242 241 243 246 247 247 246 245 235 239 235 238 242 238 240 241 245 249 252 262 266
148 179 208 198 196 211 207 194 194 179 183 193 210 224 232 237 237 231 234 238 242 248 245 246 248 248 251 250 249 241 243 239 234 235 239 238 241 244 251 254 256 260 262
87 82 89 146 203 190 171 152 164 173 179 189 213 214 213 232 236 235 241 243 246 246 247 254 256 252 253 254 247 245 254 238 235 237 236 236 239 243 246 250 252 252 257
84 83 83 89 97 100 106 112 144 142 128 140 230 225 218 226 234 238 246 254 256 257 257 259 261 263 262 257 258 260 255 245 240 238 236 233 243 252 254 255 254 254 256
75 76 79 85 92 100 104 107 115 119 121 110 149 171 202 221 246 262 265 263 266 265 268 267 268 268 269 262 259 256 245 239 234 228 231 241 242 248 255 260 258 255 253
69 69 69 72 75 76 79 83 86 100 116 130 131 137 151 197 242 270 285 286 279 282 279 264 259 263 263 257 255 247 240 226 227 231 238 241 248 254 262 265 256 253 253
61 65 69 73 74 71 74 78 79 81 83 80 70 70 73 80 211 254 254 243 248 267 291 306 316 311 293 259 240 234 234 234 236 247 248 250 255 260 260 262 255 252 254
59 62 63 63 65 65 63 63 60 60 60 63 62 58 39 12 345 312 291 280 281 275 269 268 259 261 276 285 289 292 274 253 254 252 253 258 255 251 250 250 251 251 250
50 54 57 57 59 59 58 60 57 55 50 51 46 34 25 11 352 335 321 304 294 288 288 284 280 271 257 252 251 252 247 241 237 246 248 247 248 246 250 251 251 249 249
42 46 44 40 41 44 43 44 43 47 45 41 32 24 11 3 357 353 345 337 327 318 307 294 287 276 268 261 258 261 258 252 255 251 245 239 241 245 246 244 247 245 241
27 33 34 35 31 29 24 22 17 19 16 12 4 357 348 332 325 321 317 318 321 324 312 300 295 291 284 276 267 259 258 260 257 255 253 251 249 246 245 247 246 243 243
21 24 24 22 17 17 15 8 3 357 352 351 348 347 342 339 338 330 321 313 312 312 308 302 301 300 298 291 281 271 269 263 257 257 252 251 248 248 248 246 246 242 241
21 26 29 29 26 26 22 14 3 349 344 341 335 333 327 318 306 304 302 302 306 307 311 313 306 303 300 295 290 287 284 280 270 267 264 259 253 249 247 244 241 239 241
1 3 3 5 7 10 18 22 11 0 0 355 348 345 340 331 325 316 311 308 292 298 299 306 302 299 302 302 294 288 286 282 279 272 267 262 259 257 251 247 245 244 242
342 343 344 349 352 358 360 358 358 359 1 360 354 351 348 343 338 331 329 326 315 280 284 298 301 297 298 295 296 297 292 289 285 278 271 267 265 261 252 246 244 245 249
316 318 321 326 331 334 338 341 343 342 343 346 351 348 342 339 339 338 337 337 338 333 322 307 291 292 295 294 293 289 287 290 288 283 278 273 269 264 255 248 245 244 246
299 297 296 301 305 309 316 321 327 329 332 334 334 336 336 337 333 335 338 336 333 331 329 325 321 312 305 301 302 301 296 293 286 282 282 280 274 267 258 249 242 241 241
278 276 280 285 292 302 310 315 316 319 322 324 327 330 333 333 334 332 330 328 325 322 320 320 322 318 311 304 304 305 308 307 299 291 285 282 276 268 259 250 243 241 241
267 271 278 285 294 301 307 311 311 313 313 314 316 320 321 323 324 325 324 323 320 318 315 314 313 314 313 306 302 303 305 303 306 308 302 288 278 270 261 254 248 239 235
269 277 282 285 291 297 300 302 303 304 306 309 311 313 314 315 316 319 320 319 317 314 311 309 306 304 303 302 295 285 290 300 306 306 307 303 291 279 267 257 247 241 236
270 277 282 286 289 292 295 298 300 301 303 304 305 308 311 313 315 318 319 317 315 314 311 306 302 301 300 300 298 290 282 276 282 291 304 311 303 291 272 258 242 236 234
274 279 284 288 290 293 295 297 298 297 296 297 302 307 310 312 315 317 317 315 315 315 312 307 305 304 304 304 304 300 295 289 280 275 282 285 284 293 284 260 241 229 224
278 281 285 291 293 293 294 295 300 304 300 299 304 308 309 311 314 315 316 316 316 314 312 310 309 309 308 307 306 302 300 294 290 281 268 274 283 278 259 259 256 232 226